Flag for Germany Weather past 2 weeks in Castrop-Rauxel, North Rhine-Westphalia, Germany

Now
55 °F

Broken clouds.


Feels Like: 54 °F
Forecast: 46 / 66 °F
Wind: 7 mph from Northeast

Location: Dortmund / Wickede


UV Index: 3 (Moderate)

Visibility: N/A


Pressure: 29.68 "Hg

Humidity: 77%

Dew point: 48 °F

Location of Castrop-RauxelLocation

Historic Weather in Castrop-Rauxel

°F

Castrop-Rauxel temperature yesterday

Maximum temperature yesterday: 68 °F (at 2:20 PM)
Minimum temperature yesterday: 48 °F (at 5:20 AM)
Average temperature yesterday: 60 °F

Past Weeks' High & Low Weather Summary

 TemperatureHumidityPressure
High70 °F (Apr 7, 5:20 PM)93% (Apr 12, 5:50 AM)30.45 "Hg (Apr 12, 5:50 AM)
Low30 °F (Apr 16, 5:20 AM)29% (Apr 17, 3:50 PM)29.68 "Hg (Apr 20, 5:20 PM)
Average51 °F65%30.05 "Hg
* Reported Apr 6 2:20 PM — Apr 21 2:20 PM, Castrop-Rauxel, Weather by CustomWeather, © 2014

Note: Actual official high and low records may vary slightly from our data, if they occured in-between our weather recording intervals... More about our weather records

Advertising

Historic Weather Conditions — Data for Previous 24 hours

 ConditionsComfort  
Time TempWeatherWind HumidityBarometerVisibility
2:20 PM
Apr 21
54 °FLight rain. Broken clouds.10 mph77%29.68 "HgN/A
1:50 PM54 °FPassing clouds.8 mph72%29.68 "HgN/A
1:20 PM54 °FPassing clouds.8 mph77%29.68 "HgN/A
12:50 PM54 °FSprinkles. Partly sunny.10 mph72%29.68 "HgN/A
12:20 PM54 °FSprinkles. Partly sunny.8 mph77%29.68 "HgN/A
11:50 AM54 °FPassing clouds.9 mph77%29.68 "HgN/A
11:20 AM54 °FSprinkles. Clear.7 mph72%29.68 "HgN/A
10:50 AM54 °FPassing clouds.6 mph77%29.68 "HgN/A
10:20 AM52 °FPassing clouds.7 mph77%29.68 "HgN/A
9:50 AM50 °FPassing clouds.7 mph76%29.68 "HgN/A
9:20 AM50 °FSunny.6 mph76%29.68 "Hg10 mi
8:50 AM48 °FSunny.5 mph82%29.68 "Hg10 mi
8:20 AM48 °FSunny.2 mph82%29.68 "Hg10 mi
7:50 AM46 °FPassing clouds.5 mph82%29.68 "HgN/A
7:20 AM48 °FClear.7 mph82%29.68 "Hg10 mi
6:50 AM46 °FClear.7 mph82%29.68 "Hg10 mi
6:20 AM45 °FPassing clouds.5 mph81%29.71 "HgN/A
5:50 AM45 °FClear.5 mph81%29.71 "Hg10 mi
5:20 AM45 °FClear.6 mph81%29.71 "Hg10 mi
9:50 PM
Apr 20
59 °FClear.9 mph55%29.74 "Hg10 mi
9:20 PM59 °FSunny.10 mph55%29.74 "Hg10 mi
8:50 PM61 °FSunny.10 mph52%29.71 "Hg10 mi
8:20 PM63 °FSunny.15 mph45%29.71 "Hg10 mi
7:50 PM64 °FSunny.13 mph43%29.71 "Hg10 mi
7:20 PM64 °FPassing clouds.13 mph43%29.71 "HgN/A
6:50 PM66 °FPassing clouds.13 mph40%29.68 "HgN/A
6:20 PM66 °FSunny.14 mph40%29.68 "Hg10 mi
5:50 PM66 °FSunny.16 mph40%29.71 "Hg10 mi
5:20 PM68 °FPassing clouds.15 mph38%29.68 "HgN/A
4:50 PM68 °FPassing clouds.14 mph40%29.71 "HgN/A
4:20 PM66 °FSunny.18 mph43%29.71 "Hg10 mi
3:50 PM68 °FPassing clouds.18 mph40%29.71 "HgN/A
3:20 PM68 °FPassing clouds.17 mph43%29.71 "HgN/A
Weather by CustomWeather, © 2014

See weather overview